,,,PA_Meas_PMT16A,,PR_Meas_QMR101_102,,RH_Meas_QMH101,,SR_Meas_QMS101,,TA_Meas_QMH101,,GenWind,,GenWind,
date,time,status,PA,status,PR,status,RH,status,SR,status,TA,status,DirAvg,status,SpdAvg,
2009-05-07, 00:00:04,VALID,1000.4,VALID,0,VALID,92.883,VALID,0,VALID,23.8982,VALID,77,VALID,0.200781,
2009-05-07, 00:01:04,VALID,1000.38,VALID,0,VALID,92.9669,VALID,0,VALID,23.8573,VALID,77,VALID,0.157422,
2009-05-07, 00:02:04,VALID,1000.35,VALID,0,VALID,92.9822,VALID,0,VALID,23.8573,VALID,77,VALID,0,
2009-05-07, 00:03:04,VALID,1000.39,VALID,0,VALID,92.9898,VALID,0,VALID,23.8378,VALID,77,VALID,0,
2009-05-07, 00:04:04,VALID,1000.39,VALID,0,VALID,93.0737,VALID,0,VALID,23.8183,VALID,77,VALID,0,
2009-05-07, 00:05:04,VALID,1000.38,VALID,0,VALID,93.2111,VALID,0,VALID,23.8378,VALID,77,VALID,0,
2009-05-07, 00:06:04,VALID,1000.39,VALID,0,VALID,93.2721,VALID,0,VALID,23.8573,VALID,77,VALID,0,
2009-05-07, 00:07:04,VALID,1000.39,VALID,0,VALID,93.2187,VALID,0,VALID,23.8573,VALID,77,VALID,0.472266,
2009-05-07, 00:08:04,VALID,1000.38,VALID,0,VALID,93.295,VALID,0,VALID,23.8573,VALID,77,VALID,0.439453,
2009-05-07, 00:09:04,VALID,1000.34,VALID,0,VALID,93.2416,VALID,0,VALID,23.8573,VALID,45,VALID,0.629687,
2009-05-07, 00:10:04,VALID,1000.32,VALID,0,VALID,93.2111,VALID,0,VALID,23.8768,VALID,36,VALID,0.618359,
2009-05-07, 00:11:04,VALID,1000.32,VALID,0,VALID,92.9593,VALID,0,VALID,23.8786,VALID,36,VALID,0.573047,
2009-05-07, 00:12:04,VALID,1000.31,VALID,0,VALID,92.8372,VALID,0,VALID,23.8573,VALID,36,VALID,0.492578,
2009-05-07, 00:13:04,VALID,1000.29,VALID,0,VALID,92.7457,VALID,0,VALID,23.8573,VALID,36,VALID,0.594141,
2009-05-07, 00:14:04,VALID,1000.26,VALID,0,VALID,92.6236,VALID,0,VALID,23.8768,VALID,36,VALID,0.7,
2009-05-07, 00:15:04,VALID,1000.27,VALID,0,VALID,92.5549,VALID,0,VALID,23.8982,VALID,36,VALID,0.671094,
2009-05-07, 00:16:04,VALID,1000.25,VALID,0,VALID,92.1429,VALID,0,VALID,23.8768,VALID,36,VALID,0.673828,
2009-05-07, 00:17:04,VALID,1000.25,VALID,0,VALID,92.3489,VALID,0,VALID,23.8963,VALID,36,VALID,0.565234,
2009-05-07, 00:18:04,VALID,1000.24,VALID,0,VALID,92.0209,VALID,0,VALID,23.9567,VALID,36,VALID,0.520312,
2009-05-07, 00:19:04,VALID,1000.27,VALID,0,VALID,91.8683,VALID,0,VALID,23.9549,VALID,36,VALID,0.507031,
2009-05-07, 00:20:04,VALID,1000.26,VALID,0,VALID,91.8835,VALID,0,VALID,23.9957,VALID,36,VALID,0.435156,
2009-05-07, 00:21:04,VALID,1000.25,VALID,0,VALID,90.9756,VALID,0,VALID,23.9957,VALID,36,VALID,0.430859,
2009-05-07, 00:22:04,VALID,1000.22,VALID,0,VALID,90.762,VALID,0,VALID,23.9159,VALID,36,VALID,0.589453,
2009-05-07, 00:23:04,VALID,1000.2,VALID,0,VALID,91.0748,VALID,0,VALID,23.8768,VALID,36,VALID,0.638281,
2009-05-07, 00:24:04,VALID,1000.2,VALID,0,VALID,91.3723,VALID,0,VALID,23.8378,VALID,29,VALID,0.712109,
2009-05-07, 00:25:04,VALID,1000.16,VALID,0,VALID,91.8759,VALID,0,VALID,23.8591,VALID,29,VALID,0.646484,
2009-05-07, 00:26:04,VALID,1000.13,VALID,0,VALID,91.9751,VALID,0,VALID,23.8573,VALID,29,VALID,0.636328,
2009-05-07, 00:27:04,VALID,1000.15,VALID,0,VALID,91.914,VALID,0,VALID,23.8768,VALID,29,VALID,0.719531,
2009-05-07, 00:28:04,VALID,1000.1,VALID,0,VALID,91.7004,VALID,0,VALID,23.9177,VALID,29,VALID,0.589453,
2009-05-07, 00:29:04,VALID,1000.11,VALID,0,VALID,91.3723,VALID,0,VALID,23.9372,VALID,29,VALID,0.606641,
2009-05-07, 00:30:04,VALID,1000.1,VALID,0,VALID,91.1434,VALID,0,VALID,23.9177,VALID,29,VALID,0.704687,
2009-05-07, 00:31:04,VALID,1000.07,VALID,0,VALID,91.0748,VALID,0,VALID,23.9177,VALID,29,VALID,0.691406,
2009-05-07, 00:32:04,VALID,1000.09,VALID,0,VALID,90.9527,VALID,0,VALID,23.8573,VALID,29,VALID,0.657031,
2009-05-07, 00:33:04,VALID,1000.06,VALID,0,VALID,91.1816,VALID,0,VALID,23.7988,VALID,29,VALID,0.711719,
2009-05-07, 00:34:04,VALID,1000.06,VALID,0,VALID,91.2655,VALID,0,VALID,23.7597,VALID,29,VALID,0.721484,
2009-05-07, 00:35:04,VALID,1000.04,VALID,0,VALID,91.4715,VALID,0,VALID,23.7012,VALID,29,VALID,0.764063,
2009-05-07, 00:36:04,VALID,1000.05,VALID,0,VALID,91.5936,VALID,0,VALID,23.6427,VALID,29,VALID,0.675,
2009-05-07, 00:37:04,VALID,1000.06,VALID,0,VALID,92.0514,VALID,0,VALID,23.5841,VALID,29,VALID,0.576953,
2009-05-07, 00:38:04,VALID,1000.01,VALID,0,VALID,92.3566,VALID,0,VALID,23.5646,VALID,29,VALID,0.601172,
2009-05-07, 00:39:04,VALID,1000.01,VALID,0,VALID,92.3871,VALID,0,VALID,23.5451,VALID,29,VALID,0.577344,
2009-05-07, 00:40:04,VALID,999.987,VALID,0,VALID,92.265,VALID,0,VALID,23.4866,VALID,29,VALID,0.557422,
2009-05-07, 00:41:04,VALID,999.966,VALID,0,VALID,92.4863,VALID,0,VALID,23.4671,VALID,29,VALID,0.420312,
2009-05-07, 00:42:04,VALID,999.955,VALID,0,VALID,92.616,VALID,0,VALID,23.4475,VALID,29,VALID,0.632422,
2009-05-07, 00:43:04,VALID,999.942,VALID,0,VALID,92.822,VALID,0,VALID,23.428,VALID,29,VALID,0.427734,
2009-05-07, 00:44:04,VALID,999.963,VALID,0,VALID,92.8296,VALID,0,VALID,23.428,VALID,29,VALID,0.459766,
2009-05-07, 00:45:04,VALID,999.916,VALID,0,VALID,92.9898,VALID,0,VALID,23.4085,VALID,29,VALID,0.511719,
2009-05-07, 00:46:04,VALID,999.901,VALID,0,VALID,93.028,VALID,0,VALID,23.4298,VALID,29,VALID,0.332031,
2009-05-07, 00:47:04,VALID,999.906,VALID,0,VALID,93.0966,VALID,0,VALID,23.4085,VALID,29,VALID,0.327734,
2009-05-07, 00:48:04,VALID,999.884,VALID,0,VALID,93.1882,VALID,0,VALID,23.389,VALID,29,VALID,0.204297,
2009-05-07, 00:49:04,VALID,999.856,VALID,0,VALID,93.3331,VALID,0,VALID,23.389,VALID,29,VALID,0.168359,
2009-05-07, 00:50:04,VALID,999.853,VALID,0,VALID,93.4781,VALID,0,VALID,23.4085,VALID,29,VALID,0.172266,
2009-05-07, 00:51:04,VALID,999.851,VALID,0,VALID,93.5315,VALID,0,VALID,23.4298,VALID,29,VALID,0.259375,
2009-05-07, 00:52:04,VALID,999.841,VALID,0,VALID,93.4628,VALID,0,VALID,23.428,VALID,29,VALID,0.170312,
2009-05-07, 00:53:04,VALID,999.82,VALID,0,VALID,93.4247,VALID,0,VALID,23.4688,VALID,29,VALID,0,
2009-05-07, 00:54:04,VALID,999.867,VALID,0,VALID,93.3408,VALID,0,VALID,23.4671,VALID,29,VALID,0,
2009-05-07, 00:55:04,VALID,999.846,VALID,0,VALID,93.2416,VALID,0,VALID,23.4671,VALID,29,VALID,0,
2009-05-07, 00:56:04,VALID,999.845,VALID,0,VALID,93.295,VALID,0,VALID,23.5274,VALID,29,VALID,0,
2009-05-07, 00:57:04,VALID,999.867,VALID,0,VALID,93.2187,VALID,0,VALID,23.5256,VALID,3,VALID,0.583594,
2009-05-07, 00:58:04,VALID,999.862,VALID,0,VALID,93.1729,VALID,0,VALID,23.5256,VALID,360,VALID,0.617969,
2009-05-07, 00:59:04,VALID,999.808,VALID,0,VALID,93.0661,VALID,0,VALID,23.5256,VALID,360,VALID,0.647266,
2009-05-07, 01:00:04,VALID,999.805,VALID,0,VALID,93.0432,VALID,0,VALID,23.5256,VALID,360,VALID,0.509375,
2009-05-07, 01:01:04,VALID,999.79,VALID,0,VALID,93.0203,VALID,0,VALID,23.5451,VALID,360,VALID,0.489062,
2009-05-07, 01:02:04,VALID,999.749,VALID,0,VALID,92.7762,VALID,0,VALID,23.5646,VALID,360,VALID,0.516797,
2009-05-07, 01:03:04,VALID,999.738,VALID,0,VALID,92.7991,VALID,0,VALID,23.5859,VALID,360,VALID,0.414063,
2009-05-07, 01:04:04,VALID,999.73,VALID,0,VALID,92.738,VALID,0,VALID,23.5841,VALID,360,VALID,0.470313,
2009-05-07, 01:05:04,VALID,999.724,VALID,0,VALID,92.532,VALID,0,VALID,23.6054,VALID,360,VALID,0.341016,
2009-05-07, 01:06:04,VALID,999.736,VALID,0,VALID,91.853,VALID,0,VALID,23.5451,VALID,360,VALID,0.272266,
2009-05-07, 01:07:04,VALID,999.752,VALID,0,VALID,92.2803,VALID,0,VALID,23.5256,VALID,360,VALID,0.426953,
2009-05-07, 01:08:04,VALID,999.682,VALID,0,VALID,92.5931,VALID,0,VALID,23.5451,VALID,360,VALID,0.291406,
2009-05-07, 01:09:04,VALID,999.711,VALID,0,VALID,92.4863,VALID,0,VALID,23.5646,VALID,360,VALID,0.280859,
2009-05-07, 01:10:04,VALID,999.689,VALID,0,VALID,92.326,VALID,0,VALID,23.5841,VALID,360,VALID,0.190625,
2009-05-07, 01:11:04,VALID,999.649,VALID,0,VALID,92.2497,VALID,0,VALID,23.6036,VALID,360,VALID,0.133203,
2009-05-07, 01:12:04,VALID,999.625,VALID,0,VALID,92.12,VALID,0,VALID,23.6036,VALID,360,VALID,0,
2009-05-07, 01:13:04,VALID,999.611,VALID,0,VALID,92.1048,VALID,0,VALID,23.6036,VALID,360,VALID,0,
2009-05-07, 01:14:04,VALID,999.605,VALID,0,VALID,92.1811,VALID,0,VALID,23.625,VALID,360,VALID,0,
2009-05-07, 01:15:04,VALID,999.594,VALID,0,VALID,92.3413,VALID,0,VALID,23.6232,VALID,360,VALID,0,
2009-05-07, 01:16:04,VALID,999.591,VALID,0,VALID,92.2803,VALID,0,VALID,23.6036,VALID,360,VALID,0.00703125,
2009-05-07, 01:17:04,VALID,999.596,VALID,0,VALID,92.3413,VALID,0,VALID,23.6054,VALID,360,VALID,0.100391,
2009-05-07, 01:18:04,VALID,999.613,VALID,0,VALID,92.3718,VALID,0,VALID,23.6054,VALID,360,VALID,0.215625,
2009-05-07, 01:19:04,VALID,999.599,VALID,0,VALID,92.3337,VALID,0,VALID,23.6036,VALID,360,VALID,0.414844,
2009-05-07, 01:20:04,VALID,999.588,VALID,0,VALID,92.1658,VALID,0,VALID,23.6427,VALID,360,VALID,0.345313,
2009-05-07, 01:21:04,VALID,999.594,VALID,0,VALID,92.0437,VALID,0,VALID,23.7012,VALID,360,VALID,0.401953,
2009-05-07, 01:22:04,VALID,999.604,VALID,0,VALID,91.6928,VALID,0,VALID,23.7402,VALID,360,VALID,0.332812,
2009-05-07, 01:23:04,VALID,999.582,VALID,0,VALID,91.5249,VALID,0,VALID,23.7597,VALID,360,VALID,0.379687,
2009-05-07, 01:24:04,VALID,999.581,VALID,0,VALID,91.4181,VALID,0,VALID,23.7811,VALID,360,VALID,0.407031,
2009-05-07, 01:25:04,VALID,999.582,VALID,0,VALID,91.3418,VALID,0,VALID,23.8006,VALID,360,VALID,0.412109,
2009-05-07, 01:26:04,VALID,999.575,VALID,0,VALID,91.1816,VALID,0,VALID,23.7597,VALID,360,VALID,0.53125,
2009-05-07, 01:27:04,VALID,999.567,VALID,0,VALID,91.1206,VALID,0,VALID,23.7225,VALID,360,VALID,0.508984,
2009-05-07, 01:28:04,VALID,999.583,VALID,0,VALID,91.2884,VALID,0,VALID,23.6835,VALID,360,VALID,0.648047,
2009-05-07, 01:29:04,VALID,999.559,VALID,0,VALID,91.5631,VALID,0,VALID,23.6232,VALID,360,VALID,0.757031,
2009-05-07, 01:30:04,VALID,999.527,VALID,0,VALID,91.8377,VALID,0,VALID,23.6036,VALID,360,VALID,0.766406,
2009-05-07, 01:31:04,VALID,999.534,VALID,0,VALID,91.9827,VALID,0,VALID,23.5841,VALID,360,VALID,0.851563,
2009-05-07, 01:32:04,VALID,999.525,VALID,0,VALID,92.0819,VALID,0,VALID,23.5646,VALID,360,VALID,0.927344,
2009-05-07, 01:33:04,VALID,999.54,VALID,0,VALID,91.8988,VALID,0,VALID,23.5061,VALID,360,VALID,0.974219,
2009-05-07, 01:34:04,VALID,999.531,VALID,0,VALID,91.7309,VALID,0,VALID,23.4475,VALID,360,VALID,1.05508,
2009-05-07, 01:35:04,VALID,999.534,VALID,0,VALID,92.5854,VALID,0,VALID,23.428,VALID,360,VALID,0.903125,
2009-05-07, 01:36:04,VALID,999.538,VALID,0,VALID,92.7304,VALID,0,VALID,23.4493,VALID,360,VALID,0.910156,
2009-05-07, 01:37:04,VALID,999.524,VALID,0,VALID,92.2497,VALID,0,VALID,23.389,VALID,2,VALID,0.998047,
2009-05-07, 01:38:04,VALID,999.502,VALID,0,VALID,91.7767,VALID,0,VALID,23.3305,VALID,14,VALID,0.986719,
2009-05-07, 01:39:04,VALID,999.511,VALID,0,VALID,91.708,VALID,0,VALID,23.2719,VALID,32,VALID,1.13477,
2009-05-07, 01:40:04,VALID,999.538,VALID,0,VALID,92.204,VALID,0,VALID,23.2347,VALID,40,VALID,1.0457,
2009-05-07, 01:41:04,VALID,999.521,VALID,0,VALID,92.5626,VALID,0,VALID,23.2329,VALID,41,VALID,0.921875,
2009-05-07, 01:42:04,VALID,999.521,VALID,0,VALID,92.883,VALID,0,VALID,23.2524,VALID,41,VALID,0.786719,
2009-05-07, 01:43:04,VALID,999.541,VALID,0,VALID,93.0356,VALID,0,VALID,23.2524,VALID,41,VALID,0.679297,
2009-05-07, 01:44:04,VALID,999.518,VALID,0,VALID,92.8906,VALID,0,VALID,23.2932,VALID,41,VALID,0.346875,
2009-05-07, 01:45:04,VALID,999.512,VALID,0,VALID,92.6999,VALID,0,VALID,23.2719,VALID,43,VALID,0.482812,
2009-05-07, 01:46:04,VALID,999.521,VALID,0,VALID,92.6007,VALID,0,VALID,23.2915,VALID,47,VALID,0.252344,
2009-05-07, 01:47:04,VALID,999.522,VALID,0,VALID,92.4176,VALID,0,VALID,23.2915,VALID,47,VALID,0,
2009-05-07, 01:48:04,VALID,999.507,VALID,0,VALID,92.3184,VALID,0,VALID,23.2719,VALID,47,VALID,0.155469,
2009-05-07, 01:49:04,VALID,999.507,VALID,0,VALID,92.1963,VALID,0,VALID,23.2737,VALID,47,VALID,0,
2009-05-07, 01:50:04,VALID,999.485,VALID,0,VALID,92.1048,VALID,0,VALID,23.2329,VALID,47,VALID,0,
2009-05-07, 01:51:04,VALID,999.497,VALID,0,VALID,92.1277,VALID,0,VALID,23.2134,VALID,47,VALID,0,
2009-05-07, 01:52:04,VALID,999.525,VALID,0,VALID,92.3031,VALID,0,VALID,23.2134,VALID,47,VALID,0,
2009-05-07, 01:53:04,VALID,999.521,VALID,0,VALID,92.4634,VALID,0,VALID,23.2134,VALID,47,VALID,0.19375,
2009-05-07, 01:54:04,VALID,999.485,VALID,0,VALID,92.4634,VALID,0,VALID,23.2134,VALID,47,VALID,0.272656,
2009-05-07, 01:55:04,VALID,999.535,VALID,0,VALID,92.3794,VALID,0,VALID,23.2524,VALID,47,VALID,0.263281,
2009-05-07, 01:56:04,VALID,999.506,VALID,0,VALID,92.1887,VALID,0,VALID,23.2524,VALID,47,VALID,0.308594,
2009-05-07, 01:57:04,VALID,999.512,VALID,0,VALID,92.0514,VALID,0,VALID,23.2524,VALID,47,VALID,0.358594,
2009-05-07, 01:58:04,VALID,999.469,VALID,0,VALID,91.792,VALID,0,VALID,23.2329,VALID,47,VALID,0.2375,
2009-05-07, 01:59:04,VALID,999.496,VALID,0,VALID,91.7233,VALID,0,VALID,23.2134,VALID,47,VALID,0.148438,
2009-05-07, 02:00:04,VALID,999.465,VALID,0,VALID,91.6623,VALID,0,VALID,23.1939,VALID,47,VALID,0.132813,
2009-05-07, 02:01:04,VALID,999.491,VALID,0,VALID,92.0209,VALID,0,VALID,23.1549,VALID,88,VALID,0.85625,
2009-05-07, 02:02:04,VALID,999.456,VALID,0,VALID,92.3794,VALID,0,VALID,23.1744,VALID,96,VALID,1.00898,
2009-05-07, 02:03:04,VALID,999.475,VALID,0,VALID,92.6312,VALID,0,VALID,23.2347,VALID,96,VALID,1.00508,
2009-05-07, 02:04:04,VALID,999.454,VALID,0,VALID,92.5473,VALID,0,VALID,23.2719,VALID,99,VALID,0.818359,
2009-05-07, 02:05:04,VALID,999.458,VALID,0,VALID,92.1963,VALID,0,VALID,23.311,VALID,99,VALID,0.79375,
2009-05-07, 02:06:04,VALID,999.454,VALID,0,VALID,92.1811,VALID,0,VALID,23.35,VALID,99,VALID,0.719531,
2009-05-07, 02:07:04,VALID,999.435,VALID,0,VALID,91.9598,VALID,0,VALID,23.3695,VALID,99,VALID,0.776172,
2009-05-07, 02:08:04,VALID,999.492,VALID,0,VALID,92.3642,VALID,0,VALID,23.389,VALID,99,VALID,0.788672,
2009-05-07, 02:09:04,VALID,999.513,VALID,0,VALID,92.204,VALID,0,VALID,23.4671,VALID,96,VALID,0.803125,
2009-05-07, 02:10:04,VALID,999.507,VALID,0,VALID,91.792,VALID,0,VALID,23.5061,VALID,94,VALID,0.763281,
2009-05-07, 02:11:04,VALID,999.529,VALID,0,VALID,91.2197,VALID,0,VALID,23.5451,VALID,94,VALID,0.864453,
2009-05-07, 02:12:04,VALID,999.537,VALID,0,VALID,90.6094,VALID,0,VALID,23.6427,VALID,94,VALID,0.808594,
2009-05-07, 02:13:04,VALID,999.577,VALID,0,VALID,90.0524,VALID,0,VALID,23.7012,VALID,92,VALID,0.852344,
2009-05-07, 02:14:04,VALID,999.532,VALID,0,VALID,89.8617,VALID,0,VALID,23.7207,VALID,92,VALID,0.909375,
2009-05-07, 02:15:04,VALID,999.566,VALID,0,VALID,89.5565,VALID,0,VALID,23.7225,VALID,92,VALID,0.750781,
2009-05-07, 02:16:04,VALID,999.577,VALID,0,VALID,89.6023,VALID,0,VALID,23.7207,VALID,92,VALID,0.738672,
2009-05-07, 02:17:04,VALID,999.531,VALID,0,VALID,89.442,VALID,0,VALID,23.7616,VALID,103,VALID,0.658984,
2009-05-07, 02:18:04,VALID,999.529,VALID,0,VALID,89.1597,VALID,0,VALID,23.7402,VALID,107,VALID,0.557031,
2009-05-07, 02:19:04,VALID,999.561,VALID,0,VALID,89.0453,VALID,0,VALID,23.742,VALID,107,VALID,0.266797,
2009-05-07, 02:20:04,VALID,999.573,VALID,0,VALID,88.9843,VALID,0,VALID,23.6622,VALID,107,VALID,0.302734,
2009-05-07, 02:21:04,VALID,999.564,VALID,0,VALID,89.3886,VALID,0,VALID,23.6036,VALID,107,VALID,0.241797,
2009-05-07, 02:22:04,VALID,999.567,VALID,0,VALID,89.8846,VALID,0,VALID,23.5451,VALID,124,VALID,0.614844,
2009-05-07, 02:23:04,VALID,999.585,VALID,0,VALID,90.266,VALID,0.112286,VALID,23.5646,VALID,127,VALID,0.966016,
2009-05-07, 02:24:04,VALID,999.567,VALID,0,VALID,90.0448,VALID,0,VALID,23.6232,VALID,130,VALID,0.801953,
2009-05-07, 02:25:04,VALID,999.558,VALID,0,VALID,89.7243,VALID,0,VALID,23.6817,VALID,139,VALID,0.871484,
2009-05-07, 02:26:04,VALID,999.538,VALID,0,VALID,89.2437,VALID,0,VALID,23.7207,VALID,152,VALID,0.838672,
2009-05-07, 02:27:04,VALID,999.51,VALID,0,VALID,89.0453,VALID,0,VALID,23.7597,VALID,154,VALID,0.84375,
2009-05-07, 02:28:04,VALID,999.528,VALID,0,VALID,88.9003,VALID,0,VALID,23.7988,VALID,160,VALID,0.948047,
2009-05-07, 02:29:04,VALID,999.493,VALID,0,VALID,88.5723,VALID,0,VALID,23.8378,VALID,160,VALID,1.00039,
2009-05-07, 02:30:04,VALID,999.502,VALID,0,VALID,88.5646,VALID,0,VALID,23.8573,VALID,160,VALID,0.870703,
2009-05-07, 02:31:04,VALID,999.494,VALID,0,VALID,88.3739,VALID,0,VALID,23.8963,VALID,160,VALID,0.540625,
2009-05-07, 02:32:04,VALID,999.513,VALID,0,VALID,88.702,VALID,0,VALID,23.8982,VALID,152,VALID,0.650391,
2009-05-07, 02:33:04,VALID,999.49,VALID,0,VALID,88.7096,VALID,0,VALID,23.8963,VALID,146,VALID,0.583203,
2009-05-07, 02:34:04,VALID,999.468,VALID,0,VALID,88.6257,VALID,0,VALID,23.8963,VALID,142,VALID,0.797266,
2009-05-07, 02:35:04,VALID,999.485,VALID,0,VALID,88.618,VALID,0,VALID,23.9159,VALID,141,VALID,0.547266,
2009-05-07, 02:36:04,VALID,999.488,VALID,0,VALID,88.6257,VALID,0,VALID,23.9372,VALID,136,VALID,0.559375,
2009-05-07, 02:37:05,VALID,999.506,VALID,0,VALID,88.557,VALID,0,VALID,23.9159,VALID,134,VALID,0.58125,
2009-05-07, 02:38:05,VALID,999.547,VALID,0,VALID,88.5265,VALID,0,VALID,23.8963,VALID,123,VALID,0.553125,
2009-05-07, 02:39:05,VALID,999.503,VALID,0,VALID,88.557,VALID,0,VALID,23.8963,VALID,123,VALID,0.232031,
2009-05-07, 02:40:05,VALID,999.492,VALID,0,VALID,88.6867,VALID,0,VALID,23.8768,VALID,123,VALID,0.313281,
2009-05-07, 02:41:05,VALID,999.494,VALID,0,VALID,88.7554,VALID,0,VALID,23.8573,VALID,123,VALID,0.0738281,
2009-05-07, 02:42:05,VALID,999.477,VALID,0,VALID,88.8393,VALID,0,VALID,23.8378,VALID,123,VALID,0,
2009-05-07, 02:43:05,VALID,999.499,VALID,0,VALID,88.9766,VALID,0,VALID,23.8183,VALID,123,VALID,0.0605469,
2009-05-07, 02:44:05,VALID,999.486,VALID,0,VALID,89.1445,VALID,0,VALID,23.7793,VALID,123,VALID,0,
2009-05-07, 02:45:05,VALID,999.473,VALID,0,VALID,89.0606,VALID,0,VALID,23.7402,VALID,123,VALID,0,
2009-05-07, 02:46:05,VALID,999.474,VALID,0,VALID,89.0758,VALID,0,VALID,23.7225,VALID,123,VALID,0,
2009-05-07, 02:47:05,VALID,999.48,VALID,0,VALID,89.3581,VALID,0,VALID,23.703,VALID,123,VALID,0.209766,
2009-05-07, 02:48:05,VALID,999.472,VALID,0,VALID,89.3123,VALID,0,VALID,23.6622,VALID,123,VALID,0.303125,
2009-05-07, 02:49:05,VALID,999.47,VALID,0,VALID,89.1979,VALID,0,VALID,23.6817,VALID,123,VALID,0.592969,
2009-05-07, 02:50:05,VALID,999.46,VALID,0,VALID,88.9461,VALID,0,VALID,23.703,VALID,118,VALID,0.582812,
2009-05-07, 02:51:05,VALID,999.473,VALID,0,VALID,88.8317,VALID,0,VALID,23.6817,VALID,118,VALID,0.6875,
2009-05-07, 02:52:05,VALID,999.46,VALID,0,VALID,88.6714,VALID,0,VALID,23.7012,VALID,116,VALID,0.703906,
2009-05-07, 02:53:05,VALID,999.445,VALID,0,VALID,88.206,VALID,0,VALID,23.742,VALID,116,VALID,0.548047,
2009-05-07, 02:54:05,VALID,999.397,VALID,0,VALID,88.2976,VALID,0,VALID,23.6817,VALID,116,VALID,0.470313,
2009-05-07, 02:55:05,VALID,999.403,VALID,0,VALID,88.6486,VALID,0,VALID,23.6427,VALID,116,VALID,0.407813,
2009-05-07, 02:56:05,VALID,999.362,VALID,0,VALID,89.1979,VALID,0,VALID,23.5841,VALID,112,VALID,0.257813,
2009-05-07, 02:57:05,VALID,999.338,VALID,0,VALID,89.5565,VALID,0,VALID,23.5451,VALID,112,VALID,0.142969,
2009-05-07, 02:58:05,VALID,999.358,VALID,0,VALID,89.2284,VALID,0,VALID,23.4884,VALID,112,VALID,0.387109,
2009-05-07, 02:59:05,VALID,999.356,VALID,0,VALID,89.526,VALID,0,VALID,23.3695,VALID,47,VALID,0.639063,
2009-05-07, 03:00:05,VALID,999.351,VALID,0,VALID,90.5026,VALID,0,VALID,23.2737,VALID,37,VALID,0.940625,
2009-05-07, 03:01:05,VALID,999.378,VALID,0,VALID,91.3723,VALID,0,VALID,23.2117,VALID,37,VALID,0.8,
2009-05-07, 03:02:05,VALID,999.365,VALID,0,VALID,90.7314,VALID,0,VALID,23.2152,VALID,36,VALID,0.998438,
2009-05-07, 03:03:05,VALID,999.392,VALID,0,VALID,90.7238,VALID,0,VALID,23.1762,VALID,36,VALID,0.949609,
2009-05-07, 03:04:05,VALID,999.387,VALID,0,VALID,91.1663,VALID,0,VALID,23.1549,VALID,30,VALID,0.885938,
2009-05-07, 03:05:05,VALID,999.376,VALID,0,VALID,90.7162,VALID,0,VALID,23.1549,VALID,30,VALID,0.934375,
2009-05-07, 03:06:05,VALID,999.368,VALID,0,VALID,90.6323,VALID,0,VALID,23.1336,VALID,30,VALID,0.951172,
2009-05-07, 03:07:05,VALID,999.383,VALID,0,VALID,90.472,VALID,0,VALID,23.1354,VALID,30,VALID,0.6875,
2009-05-07, 03:08:05,VALID,999.375,VALID,0,VALID,90.5102,VALID,0,VALID,23.1159,VALID,30,VALID,0.701953,
2009-05-07, 03:09:05,VALID,999.373,VALID,0,VALID,90.5178,VALID,0,VALID,23.0964,VALID,30,VALID,0.788672,
2009-05-07, 03:10:05,VALID,999.389,VALID,0,VALID,90.9146,VALID,0,VALID,23.0786,VALID,30,VALID,0.768359,
2009-05-07, 03:11:05,VALID,999.399,VALID,0,VALID,90.9527,VALID,0,VALID,23.0591,VALID,30,VALID,0.713281,
2009-05-07, 03:12:05,VALID,999.397,VALID,0,VALID,90.678,VALID,0,VALID,23.0183,VALID,30,VALID,0.606641,
2009-05-07, 03:13:05,VALID,999.42,VALID,0,VALID,91.0748,VALID,0,VALID,22.9793,VALID,30,VALID,0.598437,
2009-05-07, 03:14:05,VALID,999.394,VALID,0,VALID,91.1816,VALID,0,VALID,22.9598,VALID,30,VALID,0.633984,
2009-05-07, 03:15:05,VALID,999.401,VALID,0,VALID,91.6012,VALID,0,VALID,22.9403,VALID,30,VALID,0.572656,
2009-05-07, 03:16:05,VALID,999.405,VALID,0,VALID,91.2274,VALID,0,VALID,22.9403,VALID,30,VALID,0.307422,
2009-05-07, 03:17:05,VALID,999.392,VALID,0,VALID,91.2274,VALID,0,VALID,22.9013,VALID,30,VALID,0.255859,
2009-05-07, 03:18:05,VALID,999.374,VALID,0,VALID,91.6088,VALID,0,VALID,22.903,VALID,30,VALID,0.268359,
2009-05-07, 03:19:05,VALID,999.365,VALID,0,VALID,91.8606,VALID,0,VALID,22.8623,VALID,30,VALID,0.115234,
2009-05-07, 03:20:05,VALID,999.376,VALID,0,VALID,92.12,VALID,0.112286,VALID,22.8818,VALID,30,VALID,0.1375,
2009-05-07, 03:21:05,VALID,999.369,VALID,0,VALID,92.2192,VALID,0,VALID,22.8835,VALID,30,VALID,0.116016,
2009-05-07, 03:22:05,VALID,999.357,VALID,0,VALID,92.3718,VALID,0,VALID,22.8623,VALID,30,VALID,0.165625,
2009-05-07, 03:23:05,VALID,999.342,VALID,0,VALID,92.5091,VALID,0,VALID,22.8623,VALID,30,VALID,0.311328,
2009-05-07, 03:24:05,VALID,999.33,VALID,0,VALID,92.4405,VALID,0,VALID,22.8427,VALID,30,VALID,0.381641,
2009-05-07, 03:25:05,VALID,999.336,VALID,0,VALID,92.3566,VALID,0,VALID,22.8037,VALID,30,VALID,0.4875,
2009-05-07, 03:26:05,VALID,999.295,VALID,0,VALID,92.5473,VALID,0,VALID,22.8037,VALID,30,VALID,0.411328,
2009-05-07, 03:27:05,VALID,999.289,VALID,0,VALID,92.4939,VALID,0,VALID,22.8037,VALID,30,VALID,0.459375,
2009-05-07, 03:28:05,VALID,999.297,VALID,0,VALID,92.5397,VALID,0,VALID,22.8037,VALID,30,VALID,0.355469,
2009-05-07, 03:29:05,VALID,999.264,VALID,0,VALID,92.4252,VALID,0.112286,VALID,22.802,VALID,30,VALID,0.4,
2009-05-07, 03:30:05,VALID,999.253,VALID,0,VALID,92.5244,VALID,0,VALID,22.8427,VALID,30,VALID,0.475,
2009-05-07, 03:31:05,VALID,999.26,VALID,0,VALID,92.2955,VALID,0,VALID,22.8427,VALID,30,VALID,0.500391,
2009-05-07, 03:32:05,VALID,999.26,VALID,0,VALID,92.059,VALID,0.112286,VALID,22.8623,VALID,58,VALID,0.727734,
2009-05-07, 03:33:05,VALID,999.27,VALID,0,VALID,92.3947,VALID,0,VALID,22.8818,VALID,69,VALID,0.745313,
2009-05-07, 03:34:05,VALID,999.279,VALID,0,VALID,92.2955,VALID,0,VALID,22.9208,VALID,70,VALID,0.6625,
2009-05-07, 03:35:05,VALID,999.249,VALID,0,VALID,91.8988,VALID,0,VALID,22.9208,VALID,76,VALID,0.766406,
2009-05-07, 03:36:05,VALID,999.26,VALID,0,VALID,91.9445,VALID,0.112286,VALID,22.9403,VALID,76,VALID,0.791797,
2009-05-07, 03:37:05,VALID,999.229,VALID,0,VALID,91.8454,VALID,0,VALID,22.9208,VALID,76,VALID,0.722266,
2009-05-07, 03:38:05,VALID,999.2,VALID,0,VALID,91.8835,VALID,0,VALID,22.8818,VALID,76,VALID,0.605078,
2009-05-07, 03:39:05,VALID,999.202,VALID,0,VALID,91.9903,VALID,0,VALID,22.8623,VALID,76,VALID,0.541797,
2009-05-07, 03:40:05,VALID,999.197,VALID,0,VALID,92.2345,VALID,0,VALID,22.8427,VALID,76,VALID,0.608203,
2009-05-07, 03:41:05,VALID,999.173,VALID,0,VALID,92.3108,VALID,0,VALID,22.8232,VALID,76,VALID,0.684766,
2009-05-07, 03:42:05,VALID,999.182,VALID,0,VALID,92.3108,VALID,0,VALID,22.8232,VALID,76,VALID,0.875,
2009-05-07, 03:43:05,VALID,999.206,VALID,0,VALID,92.1429,VALID,0.112286,VALID,22.8037,VALID,76,VALID,0.877344,
2009-05-07, 03:44:05,VALID,999.144,VALID,0,VALID,92.0743,VALID,0.112286,VALID,22.7842,VALID,76,VALID,0.820703,
2009-05-07, 03:45:05,VALID,999.12,VALID,0,VALID,92.0361,VALID,0,VALID,22.763,VALID,76,VALID,0.748438,
2009-05-07, 03:46:05,VALID,999.116,VALID,0,VALID,91.9751,VALID,0.112286,VALID,22.7842,VALID,76,VALID,0.663672,
2009-05-07, 03:47:05,VALID,999.143,VALID,0,VALID,91.9674,VALID,0,VALID,22.7842,VALID,76,VALID,0.753906,